Location: Tyler Bend Campground
(35.9875°N, 92.7606°W)
Time: 10:03:04
(UTC-06:00)

CZ-2C R/B - Visible Passes

Search period start: 06 March 2015 00:00
Search period end: 16 March 2015 01:00
Orbit: 668 x 787 km, 98.1° (Epoch: 04 March)

Date Brightness Start Highest point End Pass type
(mag) Time Alt. Az. Time Alt. Az. Time Alt. Az.
06 Mar 3.8 19:32:48 10° SSW 19:37:14 38° W 19:41:33 10° NNW visible
07 Mar 2.3 18:44:50 10° SSE 18:49:30 64° ENE 18:54:05 10° N visible
07 Mar 5.6 20:27:18 10° WSW 20:28:17 10° W 20:28:55 10° W visible
08 Mar 4.0 20:35:48 10° SSW 20:40:09 35° W 20:44:21 10° NNW visible
09 Mar 2.2 19:47:42 10° SSE 19:52:23 69° ENE 19:56:59 10° N visible
10 Mar 4.1 20:38:48 10° SSW 20:43:02 32° W 20:47:08 10° NW visible
11 Mar 2.2 19:50:35 10° SSE 19:55:15 75° ENE 19:59:51 10° N visible
12 Mar 4.3 20:41:49 10° SSW 20:45:55 29° W 20:49:55 10° NW visible
13 Mar 2.2 19:53:27 10° SSE 19:58:06 81° ENE 20:02:42 10° N visible
14 Mar 4.4 20:44:49 10° SSW 20:48:48 27° W 20:52:41 10° NW visible
15 Mar 2.2 19:56:20 10° SSE 20:00:58 87° ENE 20:05:33 10° NNW visible
